Regional Weather Roundup
Issued by NWS

Home | Current Version | Previous Version | Graphics & Text | Print | Product List | Glossary On
Versions: 1 2 3 4 5 6 7 8 9 10 11 12 13 14 15 16 17 18 19 20 21 22 23 24 25 26 27 28 29 30 31 32 33 34 35 36 37 38 39 40 41 42 43 44 45 46 47 48 49
000
ASUS45 KBOU 151407
RWRCO

WEATHER ROUNDUP FOR COLORADO
NATIONAL WEATHER SERVICE DENVER/BOULDER CO
800 AM MDT MON SEP 15 2014

NOTE: "FAIR" INDICATES FEW OR NO CLOUDS BELOW 12000 FEET WITH NO
SIGNIFICANT WEATHER AND/OR OBSTRUCTIONS TO VISIBILITY.

COZ001>005-013-030-031-151500-
...NORTHWEST COLORADO...

CITY           SKY/WX    TMP DP  RH WIND       PRES   REMARKS
CRAIG          SUNNY     43  39  86 CALM      30.31S
HAYDEN         SUNNY     48  36  61 E10       30.32S
MEEKER         SUNNY     49  39  68 N3        30.32R
MOUNT WERNER   NOT AVBL
STEAMBOAT SPGS SUNNY     42  35  76 CALM      30.36R
WALDEN         SUNNY     37  32  81 SE7       30.42S
$$

COZ006>008-011-151500-
...WEST CENTRAL VALLEYS...

CITY           SKY/WX    TMP DP  RH WIND       PRES   REMARKS
GRAND JUNCTION PTSUNNY   60  43  53 S7        30.18F
MONTROSE       SUNNY     56  42  59 S5        30.29R
EAGLE          SUNNY     45  39  81 CALM      30.41R
RIFLE          SUNNY     50  41  71 CALM      30.28R
DELTA          SUNNY     58  40  52 CALM      30.26R
NUCLA          SUNNY     54  41  62 SE6       30.31S
$$

COZ017>023-064>068-151500-
...SOUTHWEST COLORADO...

CITY           SKY/WX    TMP DP  RH WIND       PRES   REMARKS
DURANGO        SUNNY     52  42  69 CALM      30.34R
CORTEZ         SUNNY     50  43  77 CALM      30.29R
PAGOSA SPRINGS NOT AVBL
TELLURIDE      SUNNY     50  37  62 CALM      30.49R
WOLF CREEK PAS SUNNY     45  36  70 NE9       30.66R
$$

COZ009-010-012-014-032>034-037-058>063-151500-
...CENTRAL COLORADO...

CITY           SKY/WX    TMP DP  RH WIND       PRES   REMARKS
ASPEN          SUNNY     47  36  65 CALM      30.40R
BUENA VISTA    SUNNY     47  32  55 CALM      30.44R
COPPER MTN     SUNNY     46  27  46 W5        30.67R
BERTHOUD PASS  FAIR      37  36  93 NW12      30.69R
COTTONWOOD PAS SUNNY     55  28  35 CALM      30.54R
GUNNISON       MOSUNNY   39  34  81 CALM      30.48R
KREMMLING      SUNNY     37  34  87 CALM      30.45R
LEADVILLE      SUNNY     40  30  67 VRB3      30.53R
MONARCH PASS   SUNNY     46  27  46 NE6       30.77R
SALIDA         SUNNY     51  34  51 NW5       30.50R
SUNLIGHT       SUNNY     52  32  46 CALM      30.59S
WILKERSON PASS NOT AVBL
$$

COZ069>075-151500-
...SAN LUIS VALLEY/SANGRE DE CRISTO MOUNTAINS...

CITY           SKY/WX    TMP DP  RH WIND       PRES   REMARKS
ALAMOSA        MOSUNNY   52  44  74 CALM      30.41R
LA VETA PASS   NOT AVBL
SAGUACHE       NOT AVBL
$$

COZ035-036-038>040-151500-
...NORTHERN COLORADO FRONT RANGE...

CITY           SKY/WX    TMP DP  RH WIND       PRES   REMARKS
DENVER INTL AP MOSUNNY   48  44  86 NE5       30.36R
DMNS CITY PARK   N/A     55  45  67 N2        30.35S
AURORA         MOSUNNY   47  46  97 NE5       30.37R
FRONT RANGE AP NOT AVBL
ERIE MUNI ARPT SUNNY     51  47  88 CALM      30.36R
BOULDER MUN AP SUNNY     50  46  87 CALM      30.35S
CENTENNIAL     MOSUNNY   52  45  77 NW6       30.37R
BROOMFIELD     SUNNY     50  46  87 CALM      30.37R
FORT COLLINS   SUNNY     48  45  87 SE7       30.36S
LONGMONT       SUNNY     52  47  85 CALM      30.37R HAZE
$$

COZ041-046-047-076>085-087-088-151500-
...PIKES PEAK/PALMER DIVIDE AND SOUTHERN FOOTHILLS...

CITY           SKY/WX    TMP DP  RH WIND       PRES   REMARKS
COLO. SPRINGS  MOSUNNY   58  44  60 N22G29    30.30R
A. F. ACADEMY  SUNNY     53  39  60 N18G25    30.34S
ELLICOTT       NOT AVBL
FALCON         SUNNY     53  43  69 N18G28    30.34R
FORT CARSON    SUNNY     57  46  65 N21G31    30.28R
LIMON          CLOUDY    49  49 100 NW20      30.32R FOG
MONUMENT HILL  MOSUNNY   46  45  93 NW9       30.38S FOG
TRINIDAD       MOSUNNY   60  42  51 NE13      30.31R
$$

COZ042>045-048>051-090-091-151500-
...NORTHEAST COLORADO...

CITY           SKY/WX    TMP DP  RH WIND       PRES   REMARKS
GREELEY ARPT   SUNNY     46  37  71 E7        30.36R
AKRON          FOG       47  46  97 N13       30.32R VSB 3/4
BURLINGTON     CLOUDY    54  53  97 N15       30.27R FOG
WRAY           CLOUDY   N/A N/A N/A N13G20    30.29R
STERLING       CLOUDY    52  46  82 N9        30.32R
HOLYOKE        CLOUDY    54  48  82 N8        30.30R
FORT MORGAN    PTSUNNY   48  45  87 N12       30.34R
$$

COZ086-089-092>099-151500-
...SOUTHEAST COLORADO...

CITY           SKY/WX    TMP DP  RH WIND       PRES   REMARKS
PUEBLO         SUNNY     60  47  61 E7        30.25R
LA JUNTA       CLOUDY    58  52  80 N18       30.26R
LAMAR          CLOUDY    59  55  87 NE14      30.20R
SPRINGFIELD      N/A     57  54  89 N22G35    30.19R
$$



USA.gov is the U.S. government's official web portal to all federal, state and local government web resources and services.